| time (UTC) | temp C | wind direction | speed KPH | gust KPH | rain 1hr cm | rain 24hr cm | rain mn cm | humidity % | barometer mb |
| 20260506182331 | 10 | 350 | 4.8 | 11.3 | 0.00 | 0.00 | 0.00 | 79 | 1009.4 |
| 20260506181830 | 10 | 0 | 3.2 | 20.9 | 0.00 | 0.00 | 0.00 | 79 | 1009.4 |
| 20260506181328 | 10 | 21 | 6.4 | 20.9 | 0.00 | 0.00 | 0.00 | 78 | 1009.4 |
| 20260506180830 | 10 | 6 | 6.4 | 19.3 | 0.00 | 0.00 | 0.00 | 78 | 1009.3 |
| 20260506180330 | 10 | 6 | 4.8 | 19.3 | 0.00 | 0.00 | 0.00 | 77 | 1009.3 |
| 20260506175829 | 10 | 355 | 4.8 | 11.3 | 0.00 | 0.00 | 0.00 | 77 | 1009.2 |
| 20260506175329 | 10 | 0 | 4.8 | 17.7 | 0.00 | 0.00 | 0.00 | 76 | 1009.2 |
| 20260506174829 | 10 | 1 | 6.4 | 17.7 | 0.00 | 0.00 | 0.00 | 77 | 1009.2 |
| 20260506174328 | 10 | 1 | 6.4 | 16.1 | 0.00 | 0.00 | 0.00 | 76 | 1009.1 |
| 20260506173829 | 10 | 79 | 6.4 | 16.1 | 0.00 | 0.00 | 0.00 | 76 | 1009.0 |
| 20260506173328 | 11 | 30 | 4.8 | 19.3 | 0.00 | 0.00 | 0.00 | 75 | 1009.0 |
| 20260506172827 | 11 | 8 | 4.8 | 19.3 | 0.00 | 0.00 | 0.00 | 75 | 1009.0 |
| 20260506172325 | 11 | 55 | 9.7 | 17.7 | 0.00 | 0.00 | 0.00 | 73 | 1009.0 |
| 20260506171826 | 11 | 35 | 6.4 | 19.3 | 0.00 | 0.00 | 0.00 | 74 | 1008.9 |
| 20260506171326 | 11 | 25 | 6.4 | 19.3 | 0.00 | 0.00 | 0.00 | 72 | 1008.9 |
| 20260506170820 | 12 | 45 | 6.4 | 14.5 | 0.00 | 0.00 | 0.00 | 73 | 1009.0 |
| 20260506170321 | 12 | 0 | 4.8 | 14.5 | 0.00 | 0.00 | 0.00 | 72 | 1008.9 |
| 20260506165820 | 12 | 358 | 6.4 | 16.1 | 0.00 | 0.00 | 0.00 | 72 | 1008.9 |
| 20260506165319 | 12 | 355 | 4.8 | 22.5 | 0.00 | 0.00 | 0.00 | 71 | 1008.8 |
| 20260506164819 | 12 | 35 | 6.4 | 22.5 | 0.00 | 0.00 | 0.00 | 72 | 1008.9 |
| 20260506164318 | 12 | 10 | 6.4 | 14.5 | 0.00 | 0.00 | 0.00 | 71 | 1008.7 |
| 20260506163815 | 12 | 18 | 3.2 | 14.5 | 0.00 | 0.00 | 0.00 | 73 | 1008.8 |
| 20260506163315 | 12 | 28 | 6.4 | 14.5 | 0.00 | 0.00 | 0.00 | 72 | 1008.9 |
| 20260506162813 | 12 | 7 | 3.2 | 11.3 | 0.00 | 0.00 | 0.00 | 72 | 1008.8 |
| 20260506162315 | 12 | 31 | 3.2 | 16.1 | 0.00 | 0.00 | 0.00 | 71 | 1008.8 |
| 20260506161812 | 12 | 23 | 4.8 | 16.1 | 0.00 | 0.00 | 0.00 | 71 | 1008.8 |
| 20260506161313 | 12 | 13 | 4.8 | 14.5 | 0.00 | 0.00 | 0.00 | 71 | 1008.9 |
| 20260506160812 | 12 | 10 | 6.4 | 14.5 | 0.00 | 0.00 | 0.00 | 71 | 1008.9 |
| 20260506160311 | 12 | 0 | 6.4 | 16.1 | 0.00 | 0.00 | 0.00 | 71 | 1008.9 |
| 20260506155815 | 12 | 10 | 8.0 | 16.1 | 0.00 | 0.00 | 0.00 | 71 | 1009.0 |
| 20260506155310 | 12 | 21 | 6.4 | 17.7 | 0.00 | 0.00 | 0.00 | 72 | 1008.8 |
| 20260506154817 | 12 | 25 | 4.8 | 19.3 | 0.00 | 0.00 | 0.00 | 71 | 1008.9 |
| 20260506154309 | 12 | 23 | 4.8 | 19.3 | 0.00 | 0.00 | 0.00 | 72 | 1008.9 |
| 20260506153810 | 12 | 8 | 4.8 | 16.1 | 0.00 | 0.00 | 0.00 | 72 | 1009.0 |
| 20260506153307 | 12 | 21 | 4.8 | 16.1 | 0.00 | 0.00 | 0.00 | 73 | 1008.9 |
| 20260506152805 | 12 | 0 | 4.8 | 16.1 | 0.00 | 0.00 | 0.00 | 72 | 1008.9 |
| 20260506152306 | 12 | 344 | 6.4 | 11.3 | 0.00 | 0.00 | 0.00 | 73 | 1008.9 |
| 20260506151806 | 12 | 35 | 4.8 | 9.7 | 0.00 | 0.00 | 0.00 | 75 | 1008.8 |
| 20260506151306 | 12 | 348 | 4.8 | 11.3 | 0.00 | 0.00 | 0.00 | 74 | 1008.9 |
| 20260506150807 | 12 | 27 | 4.8 | 14.5 | 0.00 | 0.00 | 0.00 | 74 | 1008.8 |
| 20260506150305 | 12 | 21 | 6.4 | 14.5 | 0.00 | 0.00 | 0.00 | 74 | 1008.9 |
| 20260506145805 | 12 | 345 | 6.4 | 16.1 | 0.00 | 0.00 | 0.00 | 75 | 1009.0 |
| 20260506145306 | 12 | 39 | 8.0 | 16.1 | 0.00 | 0.00 | 0.00 | 75 | 1009.0 |
| 20260506144805 | 12 | 334 | 4.8 | 17.7 | 0.00 | 0.00 | 0.00 | 75 | 1009.0 |
| 20260506144306 | 12 | 343 | 6.4 | 17.7 | 0.00 | 0.00 | 0.00 | 75 | 1008.9 |
| 20260506143805 | 12 | 31 | 6.4 | 16.1 | 0.00 | 0.00 | 0.00 | 76 | 1008.9 |
| 20260506143305 | 12 | 0 | 6.4 | 16.1 | 0.00 | 0.00 | 0.00 | 75 | 1008.9 |
| 20260506142805 | 12 | 0 | 6.4 | 14.5 | 0.00 | 0.00 | 0.00 | 76 | 1009.0 |
| 20260506142306 | 12 | 18 | 4.8 | 19.3 | 0.00 | 0.00 | 0.00 | 75 | 1008.9 |
| 20260506141804 | 12 | 51 | 4.8 | 19.3 | 0.00 | 0.00 | 0.00 | 76 | 1008.9 |
| 20260506141303 | 12 | 334 | 6.4 | 11.3 | 0.00 | 0.00 | 0.00 | 75 | 1009.0 |
| 20260506140804 | 12 | 20 | 6.4 | 11.3 | 0.00 | 0.00 | 0.00 | 75 | 1008.9 |
| 20260506140303 | 12 | 16 | 4.8 | 11.3 | 0.00 | 0.00 | 0.00 | 75 | 1008.8 |
| 20260506135803 | 12 | 8 | 4.8 | 11.3 | 0.00 | 0.00 | 0.00 | 75 | 1008.8 |
| 20260506135305 | 12 | 8 | 6.4 | 17.7 | 0.00 | 0.00 | 0.00 | 75 | 1008.8 |
| 20260506134800 | 12 | 28 | 6.4 | 17.7 | 0.00 | 0.00 | 0.00 | 75 | 1008.9 |
| 20260506134259 | 12 | 27 | 4.8 | 9.7 | 0.00 | 0.00 | 0.00 | 76 | 1008.8 |
| 20260506133801 | 12 | 18 | 6.4 | 9.7 | 0.00 | 0.00 | 0.00 | 74 | 1008.8 |
| 20260506133259 | 12 | 71 | 4.8 | 14.5 | 0.00 | 0.00 | 0.00 | 75 | 1008.8 |
| 20260506132752 | 12 | 28 | 6.4 | 16.1 | 0.00 | 0.00 | 0.00 | 76 | 1008.8 |
| 20260506132248 | 12 | 0 | 6.4 | 20.9 | 0.00 | 0.00 | 0.00 | 74 | 1008.8 |
| 20260506131748 | 13 | 17 | 6.4 | 20.9 | 0.00 | 0.00 | 0.00 | 74 | 1008.8 |
| 20260506131248 | 13 | 341 | 6.4 | 14.5 | 0.00 | 0.00 | 0.00 | 71 | 1008.8 |
| 20260506130748 | 13 | 7 | 4.8 | 14.5 | 0.00 | 0.00 | 0.00 | 70 | 1008.7 |
| 20260506130249 | 13 | 27 | 6.4 | 14.5 | 0.00 | 0.00 | 0.00 | 71 | 1008.6 |
| 20260506125749 | 13 | 330 | 6.4 | 16.1 | 0.00 | 0.00 | 0.00 | 71 | 1008.7 |
| 20260506125246 | 13 | 34 | 6.4 | 16.1 | 0.00 | 0.00 | 0.00 | 71 | 1008.7 |
| 20260506124746 | 13 | 27 | 4.8 | 14.5 | 0.00 | 0.00 | 0.00 | 70 | 1008.6 |
| 20260506124247 | 13 | 0 | 4.8 | 8.0 | 0.00 | 0.00 | 0.00 | 69 | 1008.6 |
| 20260506123744 | 13 | 11 | 4.8 | 9.7 | 0.00 | 0.00 | 0.00 | 67 | 1008.6 |
| 20260506123245 | 13 | 23 | 6.4 | 14.5 | 0.00 | 0.00 | 0.00 | 67 | 1008.6 |
| 20260506122744 | 13 | 17 | 6.4 | 19.3 | 0.00 | 0.00 | 0.00 | 66 | 1008.5 |
| 20260506122244 | 13 | 48 | 8.0 | 19.3 | 0.00 | 0.00 | 0.00 | 67 | 1008.5 |
| 20260506121744 | 13 | 14 | 4.8 | 11.3 | 0.00 | 0.00 | 0.00 | 66 | 1008.5 |
| 20260506121243 | 13 | 45 | 6.4 | 11.3 | 0.00 | 0.00 | 0.00 | 67 | 1008.5 |
| 20260506120742 | 13 | 56 | 6.4 | 11.3 | 0.00 | 0.00 | 0.00 | 66 | 1008.4 |
| 20260506120243 | 13 | 21 | 6.4 | 9.7 | 0.00 | 0.00 | 0.00 | 68 | 1008.5 |
| 20260506115742 | 13 | 24 | 6.4 | 16.1 | 0.00 | 0.00 | 0.00 | 67 | 1008.5 |
| 20260506115244 | 13 | 25 | 8.0 | 16.1 | 0.00 | 0.00 | 0.00 | 65 | 1008.4 |
| 20260506114742 | 13 | 42 | 6.4 | 9.7 | 0.00 | 0.00 | 0.00 | 66 | 1008.5 |
| 20260506114243 | 13 | 25 | 4.8 | 11.3 | 0.00 | 0.00 | 0.00 | 66 | 1008.4 |
| 20260506113751 | 13 | 47 | 6.4 | 11.3 | 0.00 | 0.00 | 0.00 | 66 | 1008.5 |
| 20260506113249 | 13 | 47 | 4.8 | 9.7 | 0.00 | 0.00 | 0.00 | 65 | 1008.5 |
| 20260506112750 | 13 | 13 | 6.4 | 16.1 | 0.00 | 0.00 | 0.00 | 66 | 1008.4 |
| 20260506112248 | 13 | 45 | 8.0 | 16.1 | 0.00 | 0.00 | 0.00 | 66 | 1008.5 |
| 20260506111746 | 13 | 38 | 4.8 | 11.3 | 0.00 | 0.00 | 0.00 | 66 | 1008.4 |
| 20260506111245 | 13 | 24 | 8.0 | 14.5 | 0.00 | 0.00 | 0.00 | 68 | 1008.3 |
| 20260506110745 | 13 | 14 | 6.4 | 14.5 | 0.00 | 0.00 | 0.00 | 67 | 1008.4 |
| 20260506110241 | 13 | 39 | 6.4 | 17.7 | 0.00 | 0.00 | 0.00 | 66 | 1008.4 |
| 20260506105742 | 13 | 18 | 6.4 | 17.7 | 0.00 | 0.00 | 0.00 | 67 | 1008.3 |
| 20260506105241 | 13 | 11 | 4.8 | 17.7 | 0.00 | 0.00 | 0.00 | 69 | 1008.3 |
| 20260506104741 | 13 | 10 | 6.4 | 17.7 | 0.00 | 0.00 | 0.00 | 67 | 1008.3 |
| 20260506104242 | 13 | 44 | 8.0 | 19.3 | 0.00 | 0.00 | 0.00 | 68 | 1008.3 |
| 20260506103740 | 13 | 86 | 6.4 | 19.3 | 0.00 | 0.00 | 0.00 | 68 | 1008.3 |
| 20260506103241 | 13 | 3 | 6.4 | 16.1 | 0.00 | 0.00 | 0.00 | 68 | 1008.2 |
| 20260506102740 | 13 | 44 | 8.0 | 22.5 | 0.00 | 0.00 | 0.00 | 68 | 1008.3 |
| 20260506102240 | 13 | 44 | 6.4 | 22.5 | 0.00 | 0.00 | 0.00 | 67 | 1008.2 |
| 20260506101740 | 13 | 62 | 12.9 | 22.5 | 0.00 | 0.00 | 0.00 | 65 | 1008.2 |
| 20260506101240 | 13 | 51 | 6.4 | 22.5 | 0.00 | 0.00 | 0.00 | 68 | 1008.2 |
| 20260506100741 | 13 | 37 | 9.7 | 22.5 | 0.00 | 0.00 | 0.00 | 67 | 1008.1 |
| 20260506100240 | 13 | 0 | 9.7 | 24.1 | 0.00 | 0.00 | 0.00 | 67 | 1008.2 |
| 20260506095740 | 12 | 63 | 11.3 | 24.1 | 0.00 | 0.00 | 0.00 | 67 | 1008.1 |
| 20260506095240 | 12 | 23 | 8.0 | 24.1 | 0.00 | 0.00 | 0.00 | 68 | 1008.1 |
| 20260506094739 | 12 | 56 | 8.0 | 24.1 | 0.00 | 0.00 | 0.00 | 67 | 1008.2 |
| 20260506094240 | 12 | 31 | 9.7 | 20.9 | 0.00 | 0.00 | 0.00 | 68 | 1008.1 |
| 20260506093740 | 12 | 48 | 8.0 | 20.9 | 0.00 | 0.00 | 0.00 | 67 | 1008.1 |
| 20260506093241 | 12 | 39 | 11.3 | 20.9 | 0.00 | 0.00 | 0.00 | 68 | 1008.0 |
| 20260506092740 | 12 | 45 | 6.4 | 20.9 | 0.00 | 0.00 | 0.00 | 69 | 1008.1 |
| 20260506092240 | 12 | 44 | 9.7 | 20.9 | 0.00 | 0.00 | 0.00 | 70 | 1008.1 |
| 20260506091741 | 12 | 41 | 4.8 | 25.7 | 0.00 | 0.00 | 0.00 | 72 | 1008.1 |
| 20260506091240 | 12 | 20 | 4.8 | 25.7 | 0.00 | 0.00 | 0.00 | 70 | 1008.0 |
| 20260506090740 | 12 | 65 | 8.0 | 20.9 | 0.00 | 0.00 | 0.00 | 70 | 1008.0 |
| 20260506090240 | 12 | 30 | 4.8 | 16.1 | 0.00 | 0.00 | 0.00 | 72 | 1008.1 |
| 20260506085740 | 11 | 45 | 4.8 | 22.5 | 0.00 | 0.00 | 0.00 | 70 | 1008.1 |
| 20260506085240 | 11 | 3 | 8.0 | 22.5 | 0.00 | 0.00 | 0.00 | 70 | 1008.1 |
| 20260506084740 | 11 | 39 | 6.4 | 20.9 | 0.00 | 0.00 | 0.00 | 71 | 1008.1 |
| 20260506084241 | 11 | 21 | 6.4 | 20.9 | 0.00 | 0.00 | 0.00 | 72 | 1008.1 |
| 20260506083739 | 11 | 34 | 4.8 | 11.3 | 0.00 | 0.00 | 0.00 | 75 | 1008.1 |
| 20260506083240 | 11 | 0 | 4.8 | 16.1 | 0.00 | 0.00 | 0.00 | 75 | 1008.1 |
| 20260506082740 | 11 | 30 | 4.8 | 16.1 | 0.00 | 0.00 | 0.00 | 74 | 1008.1 |
| 20260506082240 | 11 | 87 | 3.2 | 9.7 | 0.00 | 0.00 | 0.00 | 75 | 1008.1 |
| 20260506081740 | 11 | 47 | 4.8 | 14.5 | 0.00 | 0.00 | 0.00 | 75 | 1008.1 |
| 20260506081240 | 11 | 32 | 4.8 | 14.5 | 0.00 | 0.00 | 0.00 | 76 | 1008.0 |
| 20260506080739 | 11 | 56 | 4.8 | 14.5 | 0.00 | 0.00 | 0.00 | 75 | 1008.1 |
| 20260506080237 | 11 | 31 | 3.2 | 22.5 | 0.00 | 0.00 | 0.00 | 77 | 1008.0 |
| 20260506073233 | 10 | 28 | 3.2 | 9.7 | 0.00 | 0.00 | 0.00 | 78 | 1007.9 |
| 20260506072730 | 10 | 51 | 4.8 | 9.7 | 0.00 | 0.00 | 0.00 | 79 | 1007.8 |
| 20260506072230 | 10 | 20 | 3.2 | 8.0 | 0.00 | 0.00 | 0.00 | 78 | 1007.8 |
| 20260506071730 | 10 | 37 | 4.8 | 17.7 | 0.00 | 0.00 | 0.00 | 79 | 1007.8 |
| 20260506071229 | 10 | 0 | 6.4 | 17.7 | 0.00 | 0.00 | 0.00 | 80 | 1007.7 |
| 20260506070728 | 10 | 37 | 4.8 | 11.3 | 0.00 | 0.00 | 0.00 | 80 | 1007.8 |
| 20260506070228 | 10 | 28 | 6.4 | 17.7 | 0.00 | 0.00 | 0.00 | 81 | 1007.7 |
| 20260506062225 | 10 | 48 | 4.8 | 9.7 | 0.00 | 0.00 | 0.00 | 88 | 1007.7 |
| 20260506061722 | 9 | 37 | 3.2 | 8.0 | 0.00 | 0.00 | 0.00 | 89 | 1007.6 |
| 20260506061221 | 9 | 23 | 4.8 | 9.7 | 0.00 | 0.00 | 0.00 | 89 | 1007.6 |
| 20260506060722 | 9 | 18 | 3.2 | 11.3 | 0.00 | 0.00 | 0.00 | 89 | 1007.6 |
| 20260506060222 | 9 | 23 | 4.8 | 11.3 | 0.00 | 0.00 | 0.00 | 90 | 1007.6 |
| 20260506051215 | 8 | 24 | 3.2 | 4.8 | 0.00 | 0.00 | 0.00 | 91 | 1007.6 |
| 20260506050713 | 7 | 30 | 3.2 | 4.8 | 0.00 | 0.00 | 0.00 | 91 | 1007.7 |
| 20260506050212 | 7 | 24 | 3.2 | 4.8 | 0.00 | 0.00 | 0.00 | 91 | 1007.6 |
| 20260506044712 | 7 | 31 | 3.2 | 3.2 | 0.00 | 0.00 | 0.00 | 91 | 1007.6 |
| 20260506044210 | 7 | 30 | 1.6 | 4.8 | 0.00 | 0.00 | 0.00 | 91 | 1007.7 |
| 20260506043710 | 7 | 21 | 3.2 | 4.8 | 0.00 | 0.00 | 0.00 | 91 | 1007.6 |
| 20260506043210 | 7 | 17 | 3.2 | 4.8 | 0.00 | 0.00 | 0.00 | 91 | 1007.6 |
| 20260506042711 | 7 | 28 | 1.6 | 4.8 | 0.00 | 0.00 | 0.00 | 91 | 1007.6 |
| 20260506042210 | 7 | 20 | 3.2 | 3.2 | 0.00 | 0.00 | 0.00 | 91 | 1007.5 |
| 20260506041709 | 7 | 20 | 1.6 | 3.2 | 0.00 | 0.00 | 0.00 | 91 | 1007.6 |
| 20260506041209 | 7 | 20 | 1.6 | 4.8 | 0.00 | 0.00 | 0.00 | 91 | 1007.5 |
| 20260506040709 | 7 | 20 | 3.2 | 4.8 | 0.00 | 0.00 | 0.00 | 91 | 1007.5 |
| 20260506040208 | 7 | 17 | 1.6 | 3.2 | 0.00 | 0.00 | 0.00 | 91 | 1007.6 |
| 20260506035704 | 7 | 11 | 1.6 | 3.2 | 0.00 | 0.00 | 0.00 | 91 | 1007.6 |
| 20260506035204 | 7 | 16 | 1.6 | 3.2 | 0.00 | 0.00 | 0.00 | 91 | 1007.6 |
| 20260506034703 | 7 | 0 | 0.0 | 3.2 | 0.00 | 0.00 | 0.00 | 91 | 1007.6 |
| 20260506034203 | 7 | 0 | 0.0 | 0.0 | 0.00 | 0.00 | 0.00 | 91 | 1007.6 |
| 20260506033702 | 7 | 34 | 0.0 | 0.0 | 0.00 | 0.00 | 0.00 | 91 | 1007.7 |
| 20260506033202 | 7 | 34 | 0.0 | 0.0 | 0.00 | 0.00 | 0.00 | 91 | 1007.7 |
| 20260506032659 | 7 | 34 | 0.0 | 0.0 | 0.00 | 0.00 | 0.00 | 91 | 1007.7 |
| 20260506032201 | 7 | 34 | 0.0 | 0.0 | 0.00 | 0.00 | 0.00 | 91 | 1007.7 |
| 20260506031701 | 7 | 37 | 0.0 | 0.0 | 0.00 | 0.00 | 0.00 | 91 | 1007.9 |
| 20260506031159 | 7 | 37 | 0.0 | 0.0 | 0.00 | 0.00 | 0.00 | 91 | 1007.8 |
| 20260506030659 | 7 | 37 | 0.0 | 0.0 | 0.00 | 0.00 | 0.00 | 91 | 1007.8 |
| 20260506030159 | 7 | 37 | 0.0 | 0.0 | 0.00 | 0.00 | 0.00 | 91 | 1007.8 |
| 20260506025659 | 6 | 37 | 0.0 | 0.0 | 0.00 | 0.00 | 0.00 | 91 | 1007.9 |
| 20260506025157 | 6 | 37 | 0.0 | 0.0 | 0.00 | 0.00 | 0.00 | 91 | 1007.9 |
| 20260506024657 | 6 | 37 | 0.0 | 0.0 | 0.00 | 0.00 | 0.00 | 91 | 1007.9 |
| 20260506024153 | 6 | 37 | 0.0 | 0.0 | 0.00 | 0.00 | 0.00 | 91 | 1008.1 |
| 20260506023655 | 6 | 37 | 0.0 | 0.0 | 0.00 | 0.00 | 0.00 | 91 | 1008.1 |
| 20260506023154 | 6 | 37 | 0.0 | 0.0 | 0.00 | 0.00 | 0.00 | 90 | 1008.0 |
| 20260506022651 | 6 | 37 | 0.0 | 0.0 | 0.00 | 0.00 | 0.00 | 90 | 1008.1 |
| 20260506022151 | 6 | 37 | 0.0 | 0.0 | 0.00 | 0.00 | 0.00 | 90 | 1008.1 |
| 20260506021156 | 6 | 37 | 0.0 | 0.0 | 0.00 | 0.00 | 0.00 | 90 | 1008.2 |
| 20260506020651 | 6 | 37 | 0.0 | 0.0 | 0.00 | 0.00 | 0.00 | 90 | 1008.1 |
| 20260506020150 | 6 | 37 | 0.0 | 0.0 | 0.00 | 0.00 | 0.00 | 90 | 1008.1 |
| 20260506015650 | 6 | 37 | 0.0 | 0.0 | 0.00 | 0.00 | 0.00 | 90 | 1008.3 |
| 20260506015149 | 6 | 37 | 0.0 | 0.0 | 0.00 | 0.00 | 0.00 | 90 | 1008.2 |
| 20260506014646 | 6 | 37 | 0.0 | 0.0 | 0.00 | 0.00 | 0.00 | 90 | 1008.3 |
| 20260506014147 | 7 | 37 | 0.0 | 0.0 | 0.00 | 0.00 | 0.00 | 90 | 1008.4 |
| 20260506013647 | 7 | 37 | 0.0 | 0.0 | 0.00 | 0.00 | 0.00 | 90 | 1008.4 |
| 20260506013145 | 7 | 37 | 0.0 | 0.0 | 0.00 | 0.00 | 0.00 | 90 | 1008.4 |
| 20260506012647 | 7 | 37 | 0.0 | 1.6 | 0.00 | 0.00 | 0.00 | 89 | 1008.4 |
| 20260506012144 | 7 | 37 | 0.0 | 3.2 | 0.00 | 0.00 | 0.00 | 90 | 1008.3 |
| 20260506011641 | 7 | 37 | 1.6 | 3.2 | 0.00 | 0.00 | 0.00 | 89 | 1008.3 |
| 20260506011141 | 7 | 21 | 0.0 | 0.0 | 0.00 | 0.00 | 0.00 | 89 | 1008.3 |
| 20260506010640 | 7 | 35 | 0.0 | 0.0 | 0.00 | 0.00 | 0.00 | 90 | 1008.3 |
| 20260506010139 | 7 | 35 | 0.0 | 0.0 | 0.00 | 0.00 | 0.00 | 90 | 1008.3 |
| 20260506005639 | 7 | 35 | 0.0 | 0.0 | 0.00 | 0.00 | 0.00 | 89 | 1008.3 |
| 20260506005139 | 8 | 35 | 0.0 | 0.0 | 0.00 | 0.00 | 0.00 | 89 | 1008.4 |
| 20260506004639 | 8 | 35 | 0.0 | 0.0 | 0.00 | 0.00 | 0.00 | 89 | 1008.3 |
| 20260506004139 | 8 | 35 | 0.0 | 0.0 | 0.00 | 0.00 | 0.00 | 89 | 1008.4 |
| 20260506003639 | 8 | 35 | 0.0 | 0.0 | 0.00 | 0.00 | 0.00 | 89 | 1008.3 |
| 20260506003139 | 8 | 35 | 0.0 | 0.0 | 0.00 | 0.00 | 0.00 | 89 | 1008.3 |
| 20260506002639 | 8 | 35 | 0.0 | 1.6 | 0.00 | 0.00 | 0.00 | 89 | 1008.4 |
| 20260506002142 | 8 | 35 | 0.0 | 1.6 | 0.00 | 0.00 | 0.00 | 89 | 1008.5 |
| 20260506001639 | 8 | 35 | 1.6 | 1.6 | 0.00 | 0.00 | 0.00 | 89 | 1008.5 |
| 20260506001141 | 8 | 35 | 0.0 | 3.2 | 0.00 | 0.00 | 0.00 | 89 | 1008.5 |
| 20260506000638 | 8 | 35 | 0.0 | 3.2 | 0.00 | 0.00 | 0.00 | 89 | 1008.5 |
| 20260506000139 | 9 | 55 | 1.6 | 3.2 | 0.00 | 0.00 | 0.00 | 89 | 1008.5 |
| 20260505235639 | 9 | 69 | 1.6 | 3.2 | 0.00 | 0.00 | 0.00 | 88 | 1008.6 |
| 20260505235139 | 9 | 56 | 1.6 | 3.2 | 0.00 | 0.00 | 0.00 | 88 | 1008.6 |
| 20260505234639 | 9 | 56 | 1.6 | 6.4 | 0.00 | 0.00 | 0.00 | 88 | 1008.6 |
| 20260505234140 | 9 | 24 | 1.6 | 6.4 | 0.00 | 0.00 | 0.00 | 88 | 1008.6 |
| 20260505233639 | 10 | 18 | 1.6 | 4.8 | 0.00 | 0.00 | 0.00 | 88 | 1008.7 |
| 20260505233140 | 10 | 45 | 3.2 | 6.4 | 0.00 | 0.00 | 0.00 | 88 | 1008.6 |
| 20260505232639 | 9 | 37 | 3.2 | 6.4 | 0.00 | 0.00 | 0.00 | 88 | 1008.7 |
| 20260505232139 | 9 | 21 | 3.2 | 4.8 | 0.00 | 0.00 | 0.00 | 88 | 1008.7 |
| 20260505231639 | 10 | 21 | 1.6 | 8.0 | 0.00 | 0.00 | 0.00 | 88 | 1008.9 |
| 20260505231139 | 10 | 73 | 3.2 | 9.7 | 0.00 | 0.00 | 0.00 | 88 | 1008.8 |
| 20260505230639 | 10 | 11 | 1.6 | 9.7 | 0.00 | 0.00 | 0.00 | 87 | 1008.9 |
| 20260505230139 | 9 | 6 | 1.6 | 9.7 | 0.00 | 0.00 | 0.00 | 87 | 1008.9 |
| 20260505225639 | 9 | 7 | 3.2 | 9.7 | 0.00 | 0.00 | 0.00 | 87 | 1008.8 |
| 20260505225138 | 9 | 1 | 1.6 | 4.8 | 0.00 | 0.00 | 0.00 | 87 | 1008.9 |
| 20260505224638 | 10 | 28 | 1.6 | 4.8 | 0.00 | 0.00 | 0.00 | 86 | 1009.0 |
| 20260505224139 | 9 | 16 | 3.2 | 6.4 | 0.00 | 0.00 | 0.00 | 86 | 1009.1 |
| 20260505223638 | 9 | 25 | 3.2 | 6.4 | 0.00 | 0.00 | 0.00 | 86 | 1009.2 |
| 20260505223139 | 9 | 27 | 3.2 | 9.7 | 0.00 | 0.00 | 0.00 | 86 | 1009.2 |
| 20260505222638 | 9 | 41 | 3.2 | 9.7 | 0.00 | 0.00 | 0.00 | 86 | 1009.3 |
| 20260505222139 | 9 | 27 | 3.2 | 4.8 | 0.00 | 0.00 | 0.00 | 85 | 1009.3 |
| 20260505221639 | 9 | 7 | 3.2 | 4.8 | 0.00 | 0.00 | 0.00 | 85 | 1009.3 |
| 20260505221136 | 9 | 14 | 3.2 | 4.8 | 0.00 | 0.00 | 0.00 | 85 | 1009.3 |
| 20260505220640 | 9 | 37 | 1.6 | 4.8 | 0.00 | 0.00 | 0.00 | 85 | 1009.3 |
| 20260505220137 | 9 | 20 | 3.2 | 8.0 | 0.00 | 0.00 | 0.00 | 85 | 1009.3 |
| 20260505215635 | 9 | 25 | 1.6 | 9.7 | 0.00 | 0.00 | 0.00 | 85 | 1009.4 |
| 20260505215134 | 9 | 35 | 3.2 | 9.7 | 0.00 | 0.00 | 0.00 | 84 | 1009.2 |
| 20260505214633 | 9 | 7 | 3.2 | 11.3 | 0.00 | 0.00 | 0.00 | 84 | 1009.3 |
| 20260505214134 | 9 | 17 | 3.2 | 11.3 | 0.00 | 0.00 | 0.00 | 84 | 1009.3 |
| 20260505213634 | 9 | 0 | 3.2 | 6.4 | 0.00 | 0.00 | 0.00 | 84 | 1009.2 |
| 20260505213134 | 9 | 20 | 3.2 | 9.7 | 0.00 | 0.00 | 0.00 | 85 | 1009.3 |
| 20260505212635 | 9 | 34 | 3.2 | 9.7 | 0.00 | 0.00 | 0.00 | 85 | 1009.3 |
| 20260505212135 | 9 | 41 | 3.2 | 6.4 | 0.00 | 0.00 | 0.00 | 85 | 1009.4 |
| 20260505211635 | 9 | 7 | 3.2 | 8.0 | 0.00 | 0.00 | 0.00 | 85 | 1009.3 |
| 20260505211134 | 9 | 3 | 3.2 | 8.0 | 0.00 | 0.00 | 0.00 | 85 | 1009.4 |
| 20260505210635 | 9 | 8 | 3.2 | 6.4 | 0.00 | 0.00 | 0.00 | 85 | 1009.5 |
| 20260505210134 | 9 | 21 | 3.2 | 6.4 | 0.00 | 0.00 | 0.00 | 86 | 1009.4 |
| 20260505205633 | 9 | 27 | 3.2 | 9.7 | 0.00 | 0.00 | 0.00 | 86 | 1009.4 |
| 20260505205133 | 9 | 30 | 4.8 | 9.7 | 0.00 | 0.00 | 0.00 | 86 | 1009.4 |
| 20260505204633 | 9 | 6 | 3.2 | 14.5 | 0.00 | 0.00 | 0.00 | 86 | 1009.5 |
| 20260505204133 | 9 | 6 | 3.2 | 14.5 | 0.00 | 0.00 | 0.00 | 86 | 1009.5 |
| 20260505203633 | 9 | 0 | 3.2 | 6.4 | 0.00 | 0.00 | 0.00 | 85 | 1009.6 |
| 20260505203134 | 9 | 8 | 3.2 | 8.0 | 0.00 | 0.00 | 0.00 | 85 | 1009.6 |
| 20260505202633 | 9 | 31 | 3.2 | 9.7 | 0.00 | 0.00 | 0.00 | 85 | 1009.6 |
| 20260505202131 | 9 | 0 | 3.2 | 9.7 | 0.00 | 0.00 | 0.00 | 85 | 1009.6 |
| 20260505201633 | 9 | 18 | 3.2 | 8.0 | 0.00 | 0.00 | 0.00 | 85 | 1009.6 |
| 20260505201131 | 9 | 20 | 3.2 | 16.1 | 0.00 | 0.00 | 0.00 | 84 | 1009.6 |
| 20260505200633 | 9 | 20 | 4.8 | 16.1 | 0.00 | 0.00 | 0.00 | 84 | 1009.6 |
| 20260505200130 | 9 | 4 | 3.2 | 6.4 | 0.00 | 0.00 | 0.00 | 84 | 1009.5 |
| 20260505195630 | 9 | 8 | 3.2 | 8.0 | 0.00 | 0.00 | 0.00 | 84 | 1009.5 |
| 20260505195134 | 9 | 17 | 3.2 | 9.7 | 0.00 | 0.00 | 0.00 | 84 | 1009.5 |
| 20260505194631 | 9 | 8 | 3.2 | 9.7 | 0.00 | 0.00 | 0.00 | 84 | 1009.4 |
| 20260505194129 | 9 | 20 | 4.8 | 11.3 | 0.00 | 0.00 | 0.00 | 84 | 1009.5 |
| 20260505193629 | 9 | 21 | 3.2 | 11.3 | 0.00 | 0.00 | 0.00 | 83 | 1009.6 |
| 20260505193129 | 9 | 14 | 3.2 | 9.7 | 0.00 | 0.00 | 0.00 | 84 | 1009.7 |
| 20260505192630 | 9 | 0 | 3.2 | 9.7 | 0.00 | 0.00 | 0.00 | 84 | 1009.6 |
| 20260505192128 | 9 | 14 | 3.2 | 6.4 | 0.00 | 0.00 | 0.00 | 84 | 1009.6 |
| 20260505191631 | 9 | 16 | 3.2 | 9.7 | 0.00 | 0.00 | 0.00 | 84 | 1009.5 |
| 20260505191129 | 9 | 0 | 3.2 | 14.5 | 0.00 | 0.00 | 0.00 | 84 | 1009.5 |
| 20260505190630 | 9 | 17 | 3.2 | 14.5 | 0.00 | 0.00 | 0.00 | 84 | 1009.5 |
| 20260505190129 | 9 | 20 | 4.8 | 14.5 | 0.00 | 0.00 | 0.00 | 84 | 1009.4 |
| 20260505185628 | 10 | 24 | 3.2 | 14.5 | 0.00 | 0.00 | 0.00 | 84 | 1009.5 |
| 20260505185128 | 10 | 17 | 3.2 | 9.7 | 0.00 | 0.00 | 0.00 | 85 | 1009.3 |
| 20260505184627 | 10 | 3 | 4.8 | 11.3 | 0.00 | 0.00 | 0.00 | 85 | 1009.3 |
| 20260505184127 | 10 | 21 | 3.2 | 14.5 | 0.00 | 0.00 | 0.00 | 85 | 1009.2 |
| 20260505183623 | 10 | 7 | 6.4 | 14.5 | 0.00 | 0.00 | 0.00 | 85 | 1009.3 |
| 20260505183123 | 10 | 13 | 3.2 | 9.7 | 0.00 | 0.00 | 0.00 | 85 | 1009.3 |